Location: Cahas Mountain Overlook
(37.0833°N, 80.1000°W)
Time: 06:57:38
(UTC-05:00)

Vanguard 2 Rocket - Pass Details

Date: 09 February 2026
Orbit: 553 x 3287 km, 32.9° (Epoch: 5 March)

Event Time Altitude Azimuth Distance (km) Brightness Sun altitude
Rises 20:25:44 0° 274° (W) 3,942 11.3 -30.7°
Reaches altitude 10° 20:29:23 10° 263° (W) 2,585 10.1 -31.4°
Enters shadow 20:33:28 25° 220° (SW) 1,427 8.1 -32.2°
